Probability
0 0 0 0 0 0 0 0 0 0 0 0 0 0 0 0 0 0 0 0 0 0 0 0 0 0 0 0 0 0 0 0 0 0 0 0 0 0 0 0 0 0 0 0 0 0 0 0 0
0 0 0 0 0 0 0 0 0 0 0 0 0 0 0 0 0 0 0 0 0 0 0 0 0 0 0 0 0 0 0 0 0 0 0 0 0 0 0 0 0 0 0 0 0 0 0 0 0
0 0 0 0 0 0 0 0 0 0 0 0 0 0 0 0 0 0 0 0 0 0 0 0 0 0 0 0 0 0 0 0 0 0 0 0 0 0 0 0 0 0 0 0 0 0 0 0 0
0 0 0 0 0 0 0 0 0 0 0 0 0 0 0 0 0 0 0 0 0 0 0 0 0 0 0 0 0 0 0 0 0 0 0 0 0 0 0 0 0 0 0 0 0 0 0 0 0
0 0 0 0 0 0 0 0 0 0 0 0 0 0 0 0 0 0 0 0 0 0 0 0 0 0 0 0 0 0 0 0 0 0 0 0 0 0 0 0 0 0 0 0 0 0 0 0 0
0 0 0 0 0 0 0 0 0 0 0 0 0 0 0 0 0 0 0 0 0 0 0 0 0 0 0 0 0 0 0 0 0 0 0 0 0 0 0 0 0 0 0 0 0 0 0 0 0
0 0 0 0 0 0 0 0 0 0 0 0 0 0 0 0 0 0 0 0 0 0 0 0 0 0 0 0 0 0 0 0 0 0 0 0 0 0 0 0 0 0 0 0 0 0 0 0 0
0 0 0 0 0 0 0 0 0 0 0 0 0 0 0 0 0 0 0 0 0 0 0 0 0 0 0 0 0 0 0 0 0 0 0 0 0 0 0 0 0 0 0 0 0 0 0 0 0
0 0 0 0 0 0 0 0 0 0 0 0 0 0 0 0 0 0 0 0 0 0 0 0 0 0 0 0 0 0 0 0 0 0 0 0 0 0 0 0 0 0 0 0 0 0 0 0 0
0 0 0 0 0 0 0 0 0 0 0 0 0 0 0 0 0 0 0 0 0 0 0 0 0 0 0 0 0 0 0 0 0 0 0 0 0 0 0 0 0 0 0 0 0 0 0 0 0
0 0 0 0 0 0 0 0 0 0 0 0 0 0 0 0 0 0 0 0 0 0 0 0 0 0 0 0 0 0 0 0 0 0 0 0 0 0 0 0 0 0 0 0 0 0 0 0 0
0 0 0 0 0 0 0 0 0 0 0 0 0 0 0 0 0 0 0 0 0 0 0 0 0 0 0 0 0 0 0 0 0 0 0 0 0 0 0 0 0 0 0 0 0 0 0 0 0
0 0 0 0 0 0 0 0 0 0 0 0 0 0 0 0 0 0 0 0 0 0 0 0 0 0 0 0 0 0 0 0 0 0 0 0 0 0 0 0 0 0 0 0 0 0 0 0 0
0 0 0 0 0 0 0 0 0 0 0 0 0 0 0 0 0 0 0 0 0 0 0 0 0 0 0 0 0 0 0 0 0 0 0 0 0 0 0 0 0 0 0 0 0 0 0 0 0
0 0 0 0 0 0 0 0 0 0 0 0 0 0 0 0 0 0 0 0 0 0 0 0 0 0 0 0 0 0 0 0 0 0 0 0 0 0 0 0 0 0 0 0 0 0 0 0 0
0 0 0 0 0 0 0 0 0 0 0 0 0 0 0 0 0 0 0 0 0 0 0 0 0 0 0 0 0 0 0 0 0 0 0 0 0 0 0 0 0 0 0 0 0 0 0 0 0
0 0 0 0 0 0 0 0 0 0 0 0 0 0 0 0 0 0 0 0 0 0 0 0 0 0 0 0 0 0 0 0 0 0 0 0 0 0 0 0 0 0 0 0 0 0 0 0 0
0 0 0 0 0 0 0 0 0 0 0 0 0 0 0 0 0 0 0 0 0 0 0 0 0 0 0 0 0 0 0 0 0 0 0 0 0 0 0 0 0 0 0 0 0 0 0 0 0
0 0 0 0 0 0 0 0 0 0 0 0 0 0 0 0 0 0 0 0 0 0 0 0 0 0 0 0 0 0 0 0 0 0 0 0 0 0 0 0 0 0 0 0 0 0 0 0 0
0 0 0 0 0 0 0 0 0 0 0 0 0 0 0 0 0 0 0 0 0 0 0 0 0 0 0 0 0 0 0 0 0 0 0 0 0 0 0 0 0 0 0 0 0 0 0 0 0
0 0 0 0 0 0 0 0 0 0 0 0 0 0 0 0 0 0 0 0 0 0 0 0 0 0 0 0 0 0 0 0 0 0 0 0 0 0 0 0 0 0 0 0 0 0 0 0 0
0 0 0 0 0 0 0 0 0 0 0 0 0 0 0 0 0 0 0 0 0 0 0 0 0 0 0 0 0 0 0 0 0 0 0 0 0 0 0 0 0 0 0 0 0 0 0 0 0
0 0 0 0 0 0 0 0 0 0 0 0 0 0 0 0 0 0 0 0 0 0 0 0 0 0 0 0 0 0 0 0 0 0 0 0 0 0 0 0 0 0 0 0 0 0 0 0 0
0 0 0 0 0 0 0 0 0 0 0 0 0 0 0 0 0 0 0 0 0 0 0 0 0 0 0 0 0 0 0 0 0 0 0 0 0 0 0 0 0 0 0 0 0 0 0 0 0
0 0 0 0 0 0 0 0 0 0 0 0 0 0 0 0 0 0 0 0 0 0 0 0 0 0 0 0 0 0 0 0 0 0 0 0 0 0 0 0 0 0 0 0 0 0 0 0 0
0 0 0 0 0 0 0 0 0 0 0 0 0 0 0 0 0 0 0 0 0 0 0 0 0 0 0 0 0 0 0 0 0 0 0 0 0 0 0 0 0 0 0 0 0 0 0 0 0
0 0 0 0 0 0 0 0 0 0 0 0 0 0 0 0 0 0 0 0 0 0 0 0 0 0 0 0 0 0 0 0 0 0 0 0 0 0 0 0 0 0 0 0 0 0 0 0 0
0 0 0 0 0 0 0 0 0 0 0 0 0 0 0 0 0 0 0 0 0 0 0 0 0 0 0 0 0 0 0 0 0 0 0 0 0 0 0 0 0 0 0 0 0 0 0 0 0
0 0 0 0 0 0 0 0 0 0 0 0 0 0 0 0 0 0 0 0 0 0 0 0 0 0 0 0 0 0 0 0 0 0 0 0 0 0 0 0 0 0 0 0 0 0 0 0 0
0 0 0 0 0 0 0 0 0 0 0 0 0 0 0 0 0 0 0 0 0 0 0 0 0 0 0 0 0 0 0 0 0 0 0 0 0 0 0 0 0 0 0 0 0 0 0 0 0
Wind_Speed
6 8 6 2 3 2 7 7 8 8 6 7 8 9 9 8 8 11 4 5 6 7 10 13 17 18 19 20 20 21 21 22 22 23 23 23 23 24 24 24 24 24 25 25 25 25 25 26 26
7 6 4 3 3 2 6 7 10 9 8 6 6 9 9 9 10 9 5 4 6 8 9 11 16 17 18 19 20 20 21 21 22 22 23 23 23 23 23 24 24 24 24 24 25 25 25 25 25
9 7 4 2 5 5 8 11 13 11 7 6 6 8 7 7 8 6 4 4 7 8 8 10 16 17 18 19 19 20 20 21 21 22 22 22 22 22 23 23 23 24 24 24 24 24 24 25 25
5 4 3 4 8 7 9 13 12 10 5 6 9 8 6 6 5 7 5 6 8 7 6 8 15 16 17 18 18 19 19 20 20 21 22 22 22 22 22 22 23 23 24 24 24 24 24 24 25
3 4 2 6 6 8 11 12 10 9 7 5 8 8 7 7 10 9 6 7 7 6 5 6 12 14 15 16 17 17 18 19 19 20 21 21 21 21 21 22 23 23 24 24 24 24 24 24 25
3 4 2 7 8 8 7 7 5 10 7 5 8 9 7 8 8 7 6 6 6 6 5 6 11 12 12 13 15 16 17 18 18 19 21 21 21 21 21 22 23 23 23 24 24 24 24 25 24
3 3 4 9 7 6 7 4 4 7 7 5 6 8 8 9 8 7 6 7 6 6 5 5 6 8 12 12 13 14 15 17 18 18 20 21 21 21 21 22 23 23 24 24 24 25 25 25 25
4 1 3 6 8 6 8 3 4 4 6 4 2 6 9 12 9 7 6 5 6 5 5 5 6 5 5 6 11 14 14 16 17 18 20 20 19 19 20 20 22 23 24 24 24 25 26 25 24
3 2 3 4 5 8 10 5 4 5 8 4 4 6 14 17 11 7 6 6 5 6 5 5 5 5 6 6 9 10 12 14 14 13 18 16 8 7 10 17 22 23 24 24 24 25 26 25 22
5 4 6 6 5 9 10 7 7 5 7 5 7 11 16 13 10 8 7 6 6 6 5 5 5 5 5 6 5 4 5 5 6 5 7 5 6 7 11 18 21 23 23 22 24 25 23 17 9
6 5 5 6 6 10 8 8 8 7 6 8 13 15 13 11 9 7 5 6 6 6 4 4 4 4 4 4 4 2 2 3 4 5 6 5 5 5 6 5 9 10 14 9 13 12 9 9 9
6 6 6 5 4 7 7 7 6 7 2 5 16 18 14 11 9 7 6 6 6 5 4 4 4 4 3 3 3 3 2 3 3 4 5 4 4 5 5 5 6 5 5 6 6 6 9 10 10
6 5 7 5 2 4 5 5 4 5 6 8 15 16 14 11 9 6 7 6 6 5 4 3 3 3 3 3 3 4 3 3 4 3 4 5 4 5 5 5 5 6 5 6 7 7 9 9 10
7 8 7 5 4 3 4 4 2 4 9 10 14 13 12 10 9 8 7 6 5 5 4 4 3 3 3 3 3 3 3 3 3 3 4 5 4 5 5 6 6 6 5 6 7 9 9 8 8
9 7 5 6 6 4 3 6 9 7 11 11 11 11 11 10 9 9 8 6 6 5 4 3 1 2 3 3 4 3 3 3 3 3 4 5 5 5 5 5 6 5 6 7 7 8 7 8 10
6 5 5 8 7 6 3 7 7 13 12 11 11 10 10 10 9 8 8 7 6 5 4 3 1 2 3 3 3 3 3 3 3 2 3 4 5 6 5 5 5 6 6 6 6 6 6 7 8
6 7 4 8 8 8 6 5 7 12 12 12 11 11 10 10 10 9 9 8 7 5 4 3 2 1 2 3 3 3 3 3 3 2 2 4 5 5 5 5 5 6 5 6 8 7 7 8 9
3 5 5 4 10 8 7 8 8 12 12 12 11 11 11 12 11 10 9 9 8 6 4 3 2 1 2 2 3 3 3 3 3 2 2 4 4 5 5 5 6 6 5 5 6 8 7 7 8
5 5 7 1 7 6 9 11 10 15 12 11 11 12 12 12 11 10 10 9 8 7 5 3 1 1 1 1 2 3 3 4 3 2 3 4 4 5 5 5 5 5 5 7 8 7 9 8 7
5 6 7 3 5 5 7 11 7 16 17 14 12 12 12 11 10 11 11 10 9 8 6 4 2 1 1 1 2 3 4 4 4 2 3 4 5 5 6 5 5 6 6 7 8 8 7 8 7
7 4 4 4 2 7 4 6 3 6 9 10 10 9 10 12 12 13 12 11 9 8 7 4 3 1 1 0 2 3 3 3 3 3 3 4 5 5 5 5 5 6 6 6 8 8 8 9 9
4 5 3 4 5 3 4 4 5 6 6 10 11 11 11 10 11 12 14 12 10 8 7 5 3 3 2 1 2 3 3 4 4 3 4 5 5 6 6 6 6 6 6 7 8 8 8 10 10
3 2 3 5 5 5 5 4 3 6 7 11 12 12 11 9 9 11 13 12 10 9 7 5 4 4 3 2 2 3 4 3 4 4 5 5 5 6 6 6 5 6 6 7 8 9 9 8 10
5 5 6 3 3 5 4 4 3 6 7 8 9 10 10 9 8 9 11 10 9 9 7 6 5 5 4 3 3 3 4 5 6 6 5 5 4 5 6 6 6 7 7 7 8 9 10 9 11
4 4 2 2 3 3 2 3 5 7 6 6 7 7 7 8 9 9 11 11 10 10 8 7 6 5 4 3 3 4 4 5 5 5 5 6 5 5 6 7 6 6 7 8 8 9 10 10 11
2 3 3 3 4 2 3 5 3 6 6 4 4 4 5 7 8 9 11 10 10 10 9 8 7 5 4 4 4 4 4 3 3 5 5 5 5 5 6 7 7 8 8 10 8 8 9 9 10
3 0 2 3 5 5 6 6 3 2 4 6 6 6 7 8 9 9 10 10 10 10 10 8 7 6 5 4 4 4 4 4 5 5 5 5 5 6 7 7 8 8 8 9 8 7 9 9 9
3 4 2 3 3 5 7 5 5 8 9 10 9 10 10 9 9 10 10 10 9 9 8 8 7 6 5 4 4 4 4 5 5 5 6 6 6 6 7 8 8 8 8 8 8 7 8 9 9
5 3 4 3 2 2 5 7 0 6 7 8 10 10 10 11 11 10 10 9 9 8 8 8 7 6 5 5 4 4 4 5 5 6 6 6 6 6 7 8 8 8 9 8 7 8 9 9 9
0 3 3 3 4 4 4 9 2 4 4 5 6 6 7 10 10 10 10 10 9 9 8 8 7 6 6 5 4 4 5 5 6 6 6 6 6 7 7 8 8 9 9 8 8 9 10 9 9
Wind_Direction
260 242 236 254 247 107 84 84 101 105 75 57 52 65 70 47 47 111 111 56 51 48 40 22 20 23 24 24 24 24 23 22 21 20 18 16 15 15 14 12 11 9 7 5 4 1 359 357 355
267 246 252 237 260 122 100 113 97 82 104 109 77 84 86 81 88 102 101 67 64 58 49 25 24 26 26 25 25 24 22 21 20 18 16 14 13 12 12 10 8 7 5 3 1 359 356 355 352
266 260 253 249 40 40 110 102 101 103 117 106 70 41 63 92 99 92 100 91 77 67 63 30 28 29 28 26 25 23 21 19 17 16 14 11 10 9 9 7 6 3 1 360 358 355 353 352 349
277 252 237 54 70 48 100 112 121 123 98 99 111 89 68 45 79 106 110 81 73 65 66 41 31 30 29 26 24 22 19 17 15 13 11 8 6 5 5 4 2 360 357 356 354 352 350 348 346
238 257 177 91 81 82 97 120 145 136 124 128 112 103 97 87 98 109 98 78 74 66 59 51 36 30 28 25 22 20 17 14 12 10 8 5 2 1 1 1 359 356 354 353 351 349 348 346 343
262 267 239 114 111 106 111 138 147 110 110 113 113 114 119 130 123 119 112 93 80 70 53 44 33 27 25 24 20 16 14 11 8 7 6 2 359 358 358 358 355 353 351 350 348 346 346 343 341
307 329 51 104 128 142 135 150 140 124 135 143 130 112 132 151 135 138 121 102 85 71 56 46 41 20 12 14 16 11 10 8 5 5 3 360 358 356 354 355 350 349 348 347 345 345 343 341 340
313 269 107 123 149 137 127 131 64 105 100 76 103 142 157 153 143 140 121 113 109 87 65 39 40 26 8 358 6 6 5 5 2 2 0 359 355 352 349 350 345 345 346 344 343 344 342 341 341
282 249 102 82 136 126 135 130 71 50 98 104 49 41 126 134 143 147 159 154 117 87 71 52 36 24 5 353 5 2 360 360 0 359 357 356 344 340 341 342 343 344 344 343 343 343 342 343 340
357 39 59 26 33 127 149 142 139 148 139 140 104 92 116 135 154 175 176 135 103 84 65 58 40 26 10 359 358 347 351 353 351 357 353 344 343 335 347 342 340 343 340 342 340 340 342 339 330
37 66 88 47 44 119 143 135 157 171 183 179 158 145 145 156 171 178 151 119 105 95 72 59 49 38 17 351 345 333 334 349 344 356 348 349 345 335 345 338 335 335 336 339 334 335 330 327 326
79 65 87 84 66 120 142 143 177 213 63 132 150 151 159 171 178 173 149 126 119 107 93 66 48 46 18 353 326 322 343 346 335 348 347 355 341 338 341 333 328 330 328 329 331 327 322 324 322
99 103 86 96 109 121 136 168 197 201 109 105 131 150 167 179 176 160 136 135 128 116 104 82 54 37 9 339 327 345 339 336 328 343 349 355 345 340 337 328 324 324 324 330 329 320 320 321 319
107 118 121 131 121 134 179 187 214 194 129 135 147 163 176 182 172 156 154 161 139 119 105 81 53 20 357 350 344 325 324 322 337 344 346 350 355 342 332 324 321 320 327 328 320 318 318 316 316
131 130 148 165 171 161 216 226 211 162 144 155 166 175 183 185 176 170 168 161 135 122 110 96 71 15 3 353 336 322 311 331 332 340 343 355 359 337 333 320 318 320 324 321 317 313 313 317 319
183 184 191 180 177 139 205 263 186 146 158 171 181 185 189 191 183 177 164 151 134 133 124 105 39 2 3 344 319 308 314 333 329 343 343 0 346 335 330 319 314 317 321 317 313 312 322 317 313
203 235 198 154 183 155 208 261 127 149 171 182 190 193 192 194 191 183 163 153 145 144 136 141 122 342 355 332 320 321 327 333 332 339 343 342 333 332 328 312 308 318 317 311 315 324 315 312 311
343 324 337 162 176 185 214 241 173 175 187 193 195 200 197 200 197 185 164 155 149 146 149 153 142 57 1 349 338 327 331 327 314 319 319 328 325 328 322 305 312 316 311 309 311 308 307 305 305
324 314 299 7 145 201 238 250 212 179 193 203 202 204 206 205 192 178 164 156 154 159 165 159 151 78 29 16 338 323 318 306 299 295 313 325 322 319 310 308 309 310 307 306 304 306 306 304 302
284 288 297 98 152 218 269 271 242 177 193 202 208 208 208 201 188 177 167 165 167 170 165 161 158 124 44 50 300 277 284 285 283 298 329 318 309 304 309 309 306 302 302 302 302 304 300 304 310
280 280 336 341 272 223 272 281 155 151 184 200 218 222 212 202 193 179 174 174 172 170 161 167 163 189 196 329 283 300 301 300 316 331 317 301 299 299 299 298 296 296 298 296 299 297 303 306 302
306 49 356 307 304 271 189 281 188 163 190 207 215 222 225 212 192 180 176 177 173 162 146 158 179 201 204 233 275 299 299 301 303 300 290 297 301 304 301 294 294 295 292 292 296 307 299 299 301
320 15 275 277 271 279 220 241 205 160 206 215 215 217 217 211 192 178 173 172 163 149 149 166 188 207 205 222 259 274 283 287 292 296 297 303 303 299 296 295 298 295 292 290 292 296 293 293 294
298 278 235 247 254 257 189 212 239 194 192 181 192 201 202 196 184 167 158 155 151 147 154 172 195 210 206 219 250 263 279 289 298 302 303 302 296 294 295 301 299 295 292 291 292 291 293 292 294
240 288 264 225 218 223 93 238 248 150 143 158 173 179 181 177 169 160 156 160 159 160 166 179 197 212 209 218 244 259 268 276 283 292 295 297 294 294 295 305 297 294 291 292 293 295 296 295 298
296 299 333 303 310 326 207 233 228 146 131 124 139 160 170 172 170 167 166 166 166 168 173 185 197 207 209 219 241 251 263 265 268 277 282 285 285 286 289 296 294 294 295 299 298 299 299 302 303
290 203 51 305 281 269 250 211 125 142 175 188 197 200 202 192 178 172 168 168 169 172 179 185 192 204 209 220 238 249 260 267 269 276 277 276 277 288 295 294 293 294 295 295 300 298 301 303 305
286 331 282 248 288 294 288 272 215 198 215 208 208 208 205 192 182 176 174 172 171 172 174 179 191 202 208 218 234 250 253 260 266 272 273 275 280 285 289 290 291 293 296 297 300 300 303 306 306
184 212 229 269 288 259 291 278 110 161 177 191 206 206 197 188 184 180 176 172 167 165 171 183 193 200 208 217 230 252 260 264 268 269 272 277 282 286 288 290 292 294 295 298 302 304 306 306 307
286 244 212 230 247 221 258 271 189 125 150 186 209 199 186 181 180 176 171 167 169 174 179 187 193 198 206 211 225 247 258 264 267 272 278 283 285 285 285 287 290 293 298 298 303 307 308 305 306